Starlink 30951

operational
NORAD ID: 58439 Int'l Des: 2023-183 Owner: SPXS Country: US Constellation: starlink
LEOCIRCULAR

关于 Starlink 30951

正在加载描述...

实时位置

正在加载3D地球...

即将过境

高度历史

Altitude vs Time

uPlot chart will show altitude changes over time

两行轨道根数

1 58439U 23183C 25258.52129453 .00001950 00000-0 15936-3 0 9991
2 58439 43.0029 275.2033 0001235 279.4189 80.6514 15.02549086100366
Epoch: Sep 15, 2025 • Age: 15 hours

当前状态

高度 569.0 km
速度 7.58 km/s
星下点 -36.49°S, 89.41°E
发射日期 Nov 28, 2023
运行时间 1.7 years
类型 internet

技术详情

分类 Payload
质量 730.00 kg
干质量 700.00 kg
总质量 730.00 kg
长度 0.30 m
直径 4.10 m
跨度 29.00 m
形状 Box + pan
制造商 SPXS
平台类型 Starlink V2M
阶段状态 In Orbit
所有者/国家 SPXS/US

大型星座

Loading constellations...